When you browse on this site, cookies collect data to enhance your experience and personalize the content and advertising you see.
Visit our Privacy Policy to learn more. By continuing to use the site, you agree to this use of cookies and data.
  • In Österreich
  • Länderverzeichnis
  • Für 7 Tage
  • Wassertemperatur
  • Satellitenkarten
  • Wetterkarte
  • News
  • Widgets
  • user-avatar
    Anmelden

    Stündliche Wetter Rechane

    Heute, 19 April, Freitag

    Zeit Temperatur Niederschläge Wind Luftdruck Luftfeuchtigkeit
    00:00 +4°C° 0 mm 2 m/S 757 mmHg 74%
    01:00 +4°C° 0 mm 2 m/S 757 mmHg 78%
    02:00 +3°C° 0 mm 2 m/S 757 mmHg 82%
    03:00 +3°C° 0 mm 1 m/S 758 mmHg 85%
    04:00 +3°C° 0 mm 1 m/S 758 mmHg 87%
    05:00 +3°C° 0 mm 1 m/S 758 mmHg 90%
    06:00 +5°C° 0 mm 1 m/S 758 mmHg 81%
    07:00 +7°C° 0 mm 1 m/S 758 mmHg 72%
    08:00 +8°C° 0 mm 1 m/S 758 mmHg 63%
    09:00 +10°C° 0 mm 1 m/S 758 mmHg 56%
    10:00 +12°C° 0 mm 1 m/S 758 mmHg 48%
    11:00 +13°C° 0 mm 1 m/S 758 mmHg 41%
    12:00 +14°C° 0 mm 1 m/S 758 mmHg 39%
    13:00 +14°C° 0 mm 1 m/S 757 mmHg 36%
    14:00 +15°C° 0 mm 2 m/S 757 mmHg 33%
    15:00 +15°C° 0 mm 2 m/S 756 mmHg 34%
    16:00 +14°C° 0 mm 2 m/S 756 mmHg 35%
    17:00 +14°C° 0 mm 2 m/S 755 mmHg 36%
    18:00 +13°C° 0 mm 2 m/S 755 mmHg 41%
    19:00 +11°C° 0 mm 1 m/S 755 mmHg 46%
    20:00 +10°C° 0 mm 1 m/S 755 mmHg 51%
    21:00 +9°C° 0 mm 1 m/S 754 mmHg 52%
    22:00 +9°C° 0 mm 1 m/S 754 mmHg 53%
    23:00 +9°C° 0 mm 1 m/S 754 mmHg 55%

    Morgen, 20 April, Samstag

    Zeit Temperatur Niederschläge Wind Luftdruck Luftfeuchtigkeit
    00:00 +8°C° 0.1 mm 2 m/S 754 mmHg 61%
    01:00 +7°C° 0.1 mm 2 m/S 754 mmHg 68%
    02:00 +7°C° 0.1 mm 2 m/S 754 mmHg 75%
    03:00 +7°C° 0.2 mm 2 m/S 753 mmHg 79%
    04:00 +6°C° 0.2 mm 2 m/S 753 mmHg 82%
    05:00 +6°C° 0.2 mm 2 m/S 753 mmHg 86%
    06:00 +7°C° 0.1 mm 2 m/S 753 mmHg 82%
    07:00 +7°C° 0.1 mm 3 m/S 753 mmHg 79%
    08:00 +8°C° 0.1 mm 3 m/S 753 mmHg 75%
    09:00 +9°C° 0 mm 3 m/S 753 mmHg 66%
    10:00 +10°C° 0 mm 3 m/S 752 mmHg 56%
    11:00 +11°C° 0 mm 3 m/S 752 mmHg 47%
    12:00 +11°C° 0 mm 3 m/S 752 mmHg 45%
    13:00 +12°C° 0 mm 3 m/S 752 mmHg 42%
    14:00 +12°C° 0 mm 3 m/S 752 mmHg 39%
    15:00 +12°C° 0 mm 3 m/S 752 mmHg 41%
    16:00 +11°C° 0 mm 3 m/S 751 mmHg 43%
    17:00 +10°C° 0 mm 3 m/S 751 mmHg 46%
    18:00 +9°C° 0 mm 3 m/S 751 mmHg 52%
    19:00 +7°C° 0 mm 2 m/S 752 mmHg 59%
    20:00 +6°C° 0 mm 2 m/S 752 mmHg 65%
    21:00 +5°C° 0 mm 2 m/S 752 mmHg 68%
    22:00 +4°C° 0 mm 2 m/S 752 mmHg 72%
    23:00 +4°C° 0 mm 2 m/S 752 mmHg 75%

    übermorgen, 21 April, Sonntag

    Zeit Temperatur Niederschläge Wind Luftdruck Luftfeuchtigkeit
    00:00 +3°C° 0 mm 2 m/S 752 mmHg 78%
    01:00 +3°C° 0 mm 2 m/S 752 mmHg 81%
    02:00 +2°C° 0 mm 2 m/S 753 mmHg 84%
    03:00 +2°C° 0 mm 2 m/S 753 mmHg 88%
    04:00 +2°C° 0 mm 2 m/S 753 mmHg 92%
    05:00 +2°C° 0 mm 2 m/S 753 mmHg 96%
    06:00 +4°C° 0 mm 2 m/S 753 mmHg 88%
    07:00 +6°C° 0 mm 2 m/S 753 mmHg 81%
    08:00 +8°C° 0 mm 2 m/S 754 mmHg 73%
    09:00 +9°C° 0 mm 3 m/S 754 mmHg 64%
    10:00 +11°C° 0 mm 3 m/S 754 mmHg 55%
    11:00 +13°C° 0 mm 3 m/S 754 mmHg 46%
    12:00 +13°C° 0 mm 3 m/S 754 mmHg 45%
    13:00 +15°C° 0 mm 2 m/S 754 mmHg 44%
    14:00 +16°C° 0 mm 2 m/S 754 mmHg 42%
    15:00 +15°C° 0 mm 2 m/S 753 mmHg 45%
    16:00 +15°C° 0 mm 2 m/S 753 mmHg 47%
    17:00 +15°C° 0 mm 2 m/S 753 mmHg 50%
    18:00 +13°C° 0 mm 2 m/S 753 mmHg 58%
    19:00 +10°C° 0 mm 2 m/S 754 mmHg 67%
    20:00 +10°C° 0 mm 1 m/S 754 mmHg 75%
    21:00 +9°C° 0 mm 1 m/S 754 mmHg 78%
    22:00 +8°C° 0 mm 1 m/S 755 mmHg 81%
    23:00 +8°C° 0 mm 1 m/S 755 mmHg 83%

    22 April, Montag

    Zeit Temperatur Niederschläge Wind Luftdruck Luftfeuchtigkeit
    00:00 +7°C° 0 mm 1 m/S 755 mmHg 86%
    01:00 +7°C° 0 mm 1 m/S 755 mmHg 88%
    02:00 +7°C° 0 mm 1 m/S 756 mmHg 91%
    03:00 +6°C° 0 mm 1 m/S 756 mmHg 91%
    04:00 +6°C° 0 mm 1 m/S 756 mmHg 92%
    05:00 +6°C° 0 mm 1 m/S 756 mmHg 92%
    06:00 +8°C° 0 mm 1 m/S 756 mmHg 82%
    07:00 +10°C° 0 mm 1 m/S 757 mmHg 72%
    08:00 +12°C° 0 mm 1 m/S 757 mmHg 61%
    09:00 +14°C° 0 mm 1 m/S 757 mmHg 56%
    10:00 +15°C° 0 mm 1 m/S 757 mmHg 50%
    11:00 +18°C° 0 mm 1 m/S 757 mmHg 44%
    12:00 +18°C° 0 mm 1 m/S 757 mmHg 43%
    13:00 +18°C° 0 mm 1 m/S 757 mmHg 42%
    14:00 +18°C° 0 mm 1 m/S 757 mmHg 42%
    15:00 +16°C° 0 mm 1 m/S 757 mmHg 43%
    16:00 +16°C° 0 mm 1 m/S 757 mmHg 45%
    17:00 +16°C° 0 mm 1 m/S 756 mmHg 47%
    18:00 +14°C° 0 mm 1 m/S 757 mmHg 51%
    19:00 +13°C° 0 mm 1 m/S 757 mmHg 56%
    20:00 +11°C° 0 mm 1 m/S 757 mmHg 60%
    21:00 +11°C° 0 mm 1 m/S 757 mmHg 60%
    22:00 +10°C° 0 mm 1 m/S 757 mmHg 60%
    23:00 +10°C° 0 mm 1 m/S 758 mmHg 60%

    23 April, Dienstag

    Zeit Temperatur Niederschläge Wind Luftdruck Luftfeuchtigkeit
    00:00 +10°C° 0 mm 1 m/S 758 mmHg 60%
    01:00 +10°C° 0 mm 1 m/S 758 mmHg 61%
    02:00 +10°C° 0 mm 1 m/S 758 mmHg 61%
    03:00 +9°C° 0 mm 1 m/S 759 mmHg 62%
    04:00 +9°C° 0 mm 1 m/S 759 mmHg 63%
    05:00 +9°C° 0 mm 1 m/S 759 mmHg 64%
    06:00 +10°C° 0 mm 1 m/S 759 mmHg 59%
    07:00 +12°C° 0 mm 1 m/S 759 mmHg 54%
    08:00 +14°C° 0 mm 1 m/S 759 mmHg 49%
    09:00 +15°C° 0 mm 1 m/S 759 mmHg 45%
    10:00 +18°C° 0 mm 1 m/S 759 mmHg 40%
    11:00 +18°C° 0 mm 0 m/S 759 mmHg 36%
    12:00 +18°C° 0 mm 0 m/S 759 mmHg 36%
    13:00 +18°C° 0 mm 0 m/S 759 mmHg 36%
    14:00 +17°C° 0 mm 0 m/S 758 mmHg 36%
    15:00 +19°C° 0 mm 1 m/S 758 mmHg 37%
    16:00 +19°C° 0 mm 1 m/S 758 mmHg 37%
    17:00 +18°C° 0 mm 1 m/S 757 mmHg 38%
    18:00 +16°C° 0 mm 1 m/S 757 mmHg 44%
    19:00 +14°C° 0 mm 1 m/S 757 mmHg 49%
    20:00 +12°C° 0 mm 1 m/S 757 mmHg 55%
    21:00 +11°C° 0 mm 1 m/S 758 mmHg 58%
    22:00 +11°C° 0 mm 1 m/S 758 mmHg 60%
    23:00 +10°C° 0 mm 1 m/S 758 mmHg 63%

    24 April, Mittwoch

    Zeit Temperatur Niederschläge Wind Luftdruck Luftfeuchtigkeit
    00:00 +10°C° 0 mm 1 m/S 758 mmHg 65%
    01:00 +9°C° 0 mm 1 m/S 758 mmHg 67%
    02:00 +8°C° 0 mm 0 m/S 758 mmHg 69%
    03:00 +9°C° 0 mm 1 m/S 758 mmHg 70%
    04:00 +8°C° 0 mm 1 m/S 758 mmHg 71%
    05:00 +8°C° 0 mm 1 m/S 759 mmHg 72%
    06:00 +10°C° 0 mm 1 m/S 759 mmHg 66%
    07:00 +12°C° 0 mm 1 m/S 759 mmHg 59%
    08:00 +14°C° 0 mm 1 m/S 759 mmHg 53%
    09:00 +15°C° 0 mm 2 m/S 758 mmHg 48%
    10:00 +17°C° 0 mm 2 m/S 758 mmHg 44%
    11:00 +18°C° 0 mm 2 m/S 758 mmHg 40%
    12:00 +18°C° 0 mm 2 m/S 758 mmHg 38%
    13:00 +19°C° 0 mm 3 m/S 757 mmHg 37%
    14:00 +19°C° 0 mm 3 m/S 757 mmHg 36%
    15:00 +19°C° 0 mm 3 m/S 757 mmHg 37%
    16:00 +19°C° 0 mm 3 m/S 756 mmHg 38%
    17:00 +18°C° 0 mm 3 m/S 756 mmHg 39%
    18:00 +17°C° 0 mm 2 m/S 756 mmHg 47%
    19:00 +15°C° 0 mm 2 m/S 756 mmHg 54%
    20:00 +13°C° 0 mm 1 m/S 756 mmHg 61%
    21:00 +12°C° 0 mm 1 m/S 756 mmHg 64%
    22:00 +11°C° 0 mm 1 m/S 756 mmHg 67%
    23:00 +11°C° 0 mm 1 m/S 757 mmHg 70%
    Mehr zeigen